| time (UTC) | temp F | wind direction | speed MPH | gust MPH | rain 1hr in | rain 24hr in | rain mn in | humidity % | barometer mb |
| 20260507223504 | 62 | 334 | 6.0 | 18.0 | 0.00 | 0.14 | 0.12 | 33 | 1005.5 |
| 20260507223005 | 62 | 309 | 9.0 | 13.0 | 0.00 | 0.14 | 0.12 | 32 | 1005.5 |
| 20260507222504 | 62 | 301 | 7.0 | 15.0 | 0.00 | 0.14 | 0.12 | 32 | 1005.5 |
| 20260507221504 | 63 | 288 | 10.0 | 21.0 | 0.00 | 0.14 | 0.12 | 32 | 1005.3 |
| 20260507221005 | 63 | 216 | 6.0 | 14.0 | 0.00 | 0.14 | 0.12 | 32 | 1005.3 |
| 20260507220504 | 63 | 320 | 9.0 | 15.0 | 0.00 | 0.14 | 0.12 | 32 | 1005.3 |
| 20260507220005 | 63 | 290 | 12.0 | 16.0 | 0.00 | 0.14 | 0.12 | 31 | 1005.2 |
| 20260507215504 | 64 | 303 | 4.0 | 13.0 | 0.00 | 0.14 | 0.12 | 33 | 1005.1 |
| 20260507215006 | 64 | 297 | 4.0 | 13.0 | 0.00 | 0.15 | 0.12 | 33 | 1005.1 |
| 20260507214504 | 64 | 310 | 6.0 | 18.0 | 0.00 | 0.15 | 0.12 | 33 | 1005.1 |
| 20260507214006 | 64 | 313 | 6.0 | 17.0 | 0.00 | 0.15 | 0.12 | 32 | 1005.1 |
| 20260507213504 | 64 | 307 | 7.0 | 14.0 | 0.00 | 0.15 | 0.12 | 32 | 1005.0 |
| 20260507213006 | 64 | 296 | 6.0 | 14.0 | 0.00 | 0.15 | 0.12 | 34 | 1005.0 |
| 20260507212006 | 64 | 99 | 4.0 | 10.0 | 0.00 | 0.15 | 0.12 | 33 | 1004.9 |
| 20260507211504 | 64 | 293 | 8.0 | 17.0 | 0.00 | 0.15 | 0.12 | 32 | 1004.9 |
| 20260507211006 | 64 | 232 | 3.0 | 15.0 | 0.00 | 0.15 | 0.12 | 33 | 1005.0 |
| 20260507210504 | 65 | 283 | 9.0 | 17.0 | 0.00 | 0.15 | 0.12 | 32 | 1004.9 |
| 20260507210005 | 65 | 242 | 8.0 | 17.0 | 0.00 | 0.15 | 0.12 | 32 | 1004.8 |
| 20260507205504 | 65 | 269 | 9.0 | 17.0 | 0.00 | 0.15 | 0.12 | 32 | 1004.9 |
| 20260507205006 | 65 | 213 | 6.0 | 20.0 | 0.00 | 0.15 | 0.12 | 32 | 1004.9 |
| 20260507204505 | 65 | 285 | 6.0 | 13.0 | 0.00 | 0.15 | 0.12 | 32 | 1004.9 |
| 20260507203504 | 65 | 298 | 12.0 | 21.0 | 0.00 | 0.15 | 0.12 | 30 | 1004.9 |
| 20260507203006 | 65 | 348 | 5.0 | 16.0 | 0.00 | 0.15 | 0.12 | 32 | 1004.9 |
| 20260507202504 | 64 | 276 | 6.0 | 18.0 | 0.00 | 0.15 | 0.12 | 32 | 1004.9 |
| 20260507201504 | 65 | 262 | 14.0 | 22.0 | 0.00 | 0.15 | 0.12 | 30 | 1004.8 |
| 20260507200504 | 65 | 262 | 3.0 | 13.0 | 0.00 | 0.15 | 0.12 | 31 | 1004.9 |
| 20260507200004 | 65 | 313 | 6.0 | 12.0 | 0.00 | 0.15 | 0.12 | 31 | 1004.9 |
| 20260507195504 | 65 | 320 | 9.0 | 17.0 | 0.00 | 0.15 | 0.12 | 32 | 1005.0 |
| 20260507195006 | 65 | 286 | 9.0 | 20.0 | 0.00 | 0.15 | 0.12 | 31 | 1005.1 |
| 20260507194504 | 65 | 291 | 7.0 | 13.0 | 0.00 | 0.15 | 0.12 | 30 | 1005.1 |
| 20260507193504 | 65 | 253 | 5.0 | 14.0 | 0.00 | 0.15 | 0.12 | 32 | 1005.0 |
| 20260507193007 | 65 | 281 | 5.0 | 12.0 | 0.00 | 0.15 | 0.12 | 31 | 1005.1 |
| 20260507192504 | 65 | 301 | 5.0 | 12.0 | 0.00 | 0.15 | 0.12 | 32 | 1005.2 |
| 20260507192006 | 66 | 284 | 13.0 | 18.0 | 0.00 | 0.15 | 0.12 | 30 | 1005.2 |
| 20260507191504 | 66 | 282 | 10.0 | 20.0 | 0.00 | 0.15 | 0.12 | 30 | 1005.3 |
| 20260507191006 | 65 | 224 | 12.0 | 18.0 | 0.00 | 0.15 | 0.12 | 31 | 1005.3 |
| 20260507190504 | 65 | 282 | 2.0 | 12.0 | 0.00 | 0.15 | 0.12 | 34 | 1005.2 |
| 20260507185504 | 65 | 207 | 11.0 | 18.0 | 0.00 | 0.15 | 0.12 | 31 | 1005.5 |
| 20260507185006 | 65 | 262 | 4.0 | 15.0 | 0.00 | 0.15 | 0.12 | 34 | 1005.4 |
| 20260507183504 | 65 | 352 | 3.0 | 12.0 | 0.00 | 0.15 | 0.12 | 37 | 1005.6 |
| 20260507183006 | 64 | 269 | 9.0 | 16.0 | 0.00 | 0.15 | 0.12 | 32 | 1005.7 |
| 20260507182007 | 64 | 295 | 10.0 | 20.0 | 0.00 | 0.15 | 0.12 | 35 | 1005.6 |
| 20260507181006 | 64 | 22 | 12.0 | 20.0 | 0.00 | 0.15 | 0.12 | 36 | 1005.9 |
| 20260507180504 | 64 | 286 | 13.0 | 20.0 | 0.00 | 0.15 | 0.12 | 36 | 1005.9 |
| 20260507175504 | 64 | 279 | 9.0 | 21.0 | 0.00 | 0.15 | 0.12 | 36 | 1006.0 |
| 20260507175006 | 65 | 214 | 9.0 | 16.0 | 0.00 | 0.15 | 0.12 | 39 | 1005.8 |
| 20260507174006 | 64 | 221 | 8.0 | 14.0 | 0.00 | 0.15 | 0.12 | 40 | 1005.9 |
| 20260507173504 | 64 | 312 | 5.0 | 12.0 | 0.00 | 0.15 | 0.12 | 42 | 1005.8 |
| 20260507173006 | 64 | 302 | 6.0 | 21.0 | 0.00 | 0.15 | 0.12 | 43 | 1005.9 |
| 20260507172504 | 64 | 240 | 9.0 | 21.0 | 0.00 | 0.15 | 0.12 | 43 | 1005.9 |
| 20260507171006 | 62 | 257 | 10.0 | 15.0 | 0.00 | 0.15 | 0.12 | 46 | 1006.0 |
| 20260507170504 | 63 | 276 | 10.0 | 17.0 | 0.00 | 0.15 | 0.12 | 45 | 1006.1 |
| 20260507170004 | 63 | 302 | 7.0 | 18.0 | 0.00 | 0.15 | 0.12 | 48 | 1006.2 |
| 20260507165504 | 64 | 266 | 10.0 | 18.0 | 0.00 | 0.15 | 0.12 | 48 | 1006.1 |
| 20260507164504 | 63 | 248 | 6.0 | 16.0 | 0.00 | 0.15 | 0.12 | 50 | 1006.2 |
| 20260507164006 | 63 | 250 | 12.0 | 20.0 | 0.00 | 0.15 | 0.12 | 49 | 1006.3 |
| 20260507163504 | 63 | 236 | 14.0 | 20.0 | 0.00 | 0.15 | 0.12 | 48 | 1006.3 |
| 20260507162504 | 62 | 227 | 10.0 | 17.0 | 0.00 | 0.15 | 0.12 | 53 | 1006.4 |
| 20260507162006 | 62 | 244 | 9.0 | 16.0 | 0.00 | 0.15 | 0.12 | 51 | 1006.5 |
| 20260507161504 | 61 | 239 | 6.0 | 16.0 | 0.00 | 0.15 | 0.12 | 53 | 1006.5 |
| 20260507161007 | 61 | 240 | 5.0 | 17.0 | 0.00 | 0.15 | 0.12 | 53 | 1006.6 |
| 20260507160504 | 61 | 304 | 5.0 | 15.0 | 0.00 | 0.15 | 0.12 | 54 | 1006.7 |
| 20260507160004 | 61 | 313 | 7.0 | 14.0 | 0.00 | 0.15 | 0.12 | 53 | 1006.7 |
| 20260507155504 | 61 | 245 | 12.0 | 16.0 | 0.00 | 0.15 | 0.12 | 51 | 1006.8 |
| 20260507155006 | 61 | 208 | 12.0 | 16.0 | 0.00 | 0.15 | 0.12 | 52 | 1006.9 |
| 20260507154504 | 60 | 318 | 7.0 | 12.0 | 0.00 | 0.15 | 0.12 | 54 | 1006.9 |
| 20260507154007 | 60 | 232 | 7.0 | 13.0 | 0.00 | 0.15 | 0.12 | 54 | 1007.0 |
| 20260507153504 | 60 | 262 | 6.0 | 16.0 | 0.00 | 0.15 | 0.12 | 53 | 1007.0 |
| 20260507153006 | 60 | 298 | 7.0 | 14.0 | 0.00 | 0.15 | 0.12 | 53 | 1007.0 |
| 20260507152503 | 60 | 322 | 6.0 | 12.0 | 0.00 | 0.15 | 0.12 | 53 | 1007.1 |
| 20260507152007 | 60 | 298 | 10.0 | 14.0 | 0.00 | 0.15 | 0.12 | 52 | 1007.1 |
| 20260507151504 | 60 | 271 | 7.0 | 12.0 | 0.00 | 0.15 | 0.12 | 53 | 1007.1 |
| 20260507151006 | 60 | 280 | 8.0 | 15.0 | 0.00 | 0.15 | 0.12 | 52 | 1007.2 |
| 20260507150504 | 60 | 315 | 7.0 | 12.0 | 0.00 | 0.15 | 0.12 | 50 | 1007.2 |
| 20260507150004 | 60 | 260 | 10.0 | 15.0 | 0.00 | 0.15 | 0.12 | 50 | 1007.3 |
| 20260507145504 | 59 | 280 | 5.0 | 18.0 | 0.00 | 0.15 | 0.12 | 50 | 1007.4 |
| 20260507145006 | 59 | 281 | 5.0 | 12.0 | 0.00 | 0.15 | 0.12 | 52 | 1007.5 |
| 20260507143504 | 58 | 263 | 8.0 | 18.0 | 0.00 | 0.15 | 0.12 | 53 | 1007.5 |
| 20260507143006 | 58 | 232 | 7.0 | 12.0 | 0.00 | 0.15 | 0.12 | 54 | 1007.5 |
| 20260507142504 | 58 | 262 | 4.0 | 12.0 | 0.00 | 0.15 | 0.12 | 55 | 1007.6 |
| 20260507142006 | 58 | 269 | 5.0 | 12.0 | 0.00 | 0.15 | 0.12 | 55 | 1007.7 |
| 20260507141504 | 58 | 286 | 2.0 | 8.0 | 0.00 | 0.15 | 0.12 | 56 | 1007.6 |
| 20260507141007 | 58 | 322 | 3.0 | 9.0 | 0.00 | 0.15 | 0.12 | 57 | 1007.7 |
| 20260507140503 | 57 | 253 | 7.0 | 10.0 | 0.00 | 0.15 | 0.12 | 58 | 1007.6 |
| 20260507135504 | 57 | 272 | 6.0 | 12.0 | 0.00 | 0.15 | 0.12 | 58 | 1007.6 |
| 20260507134503 | 56 | 323 | 2.0 | 9.0 | 0.00 | 0.15 | 0.12 | 60 | 1007.5 |
| 20260507134006 | 56 | 272 | 2.0 | 8.0 | 0.00 | 0.15 | 0.12 | 61 | 1007.6 |
| 20260507133504 | 56 | 305 | 4.0 | 9.0 | 0.00 | 0.15 | 0.12 | 60 | 1007.6 |
| 20260507133006 | 55 | 43 | 4.0 | 10.0 | 0.00 | 0.15 | 0.12 | 61 | 1007.7 |
| 20260507132504 | 55 | 327 | 5.0 | 12.0 | 0.00 | 0.15 | 0.12 | 61 | 1007.7 |
| 20260507132006 | 55 | 299 | 3.0 | 8.0 | 0.00 | 0.15 | 0.12 | 62 | 1007.8 |
| 20260507131504 | 54 | 320 | 3.0 | 10.0 | 0.00 | 0.15 | 0.12 | 62 | 1007.9 |
| 20260507131006 | 54 | 331 | 3.0 | 14.0 | 0.00 | 0.15 | 0.12 | 63 | 1007.8 |
| 20260507130504 | 54 | 332 | 3.0 | 10.0 | 0.00 | 0.15 | 0.12 | 65 | 1007.8 |
| 20260507130004 | 53 | 312 | 3.0 | 12.0 | 0.00 | 0.15 | 0.12 | 67 | 1008.0 |
| 20260507125504 | 53 | 322 | 5.0 | 10.0 | 0.00 | 0.15 | 0.12 | 69 | 1008.1 |
| 20260507125006 | 52 | 292 | 5.0 | 12.0 | 0.00 | 0.15 | 0.12 | 70 | 1008.1 |
| 20260507124504 | 52 | 316 | 2.0 | 6.0 | 0.00 | 0.15 | 0.12 | 74 | 1008.1 |
| 20260507124006 | 51 | 13 | 3.0 | 7.0 | 0.00 | 0.15 | 0.12 | 75 | 1008.0 |
| 20260507123504 | 51 | 277 | 5.0 | 8.0 | 0.00 | 0.15 | 0.12 | 75 | 1008.0 |
| 20260507123006 | 51 | 323 | 2.0 | 8.0 | 0.00 | 0.15 | 0.12 | 76 | 1008.0 |
| 20260507122504 | 50 | 290 | 3.0 | 10.0 | 0.00 | 0.15 | 0.12 | 76 | 1007.8 |
| 20260507122006 | 50 | 313 | 6.0 | 10.0 | 0.00 | 0.15 | 0.12 | 77 | 1008.0 |
| 20260507121504 | 50 | 346 | 2.0 | 9.0 | 0.00 | 0.15 | 0.12 | 78 | 1007.9 |
| 20260507120504 | 49 | 303 | 2.0 | 7.0 | 0.00 | 0.15 | 0.12 | 78 | 1007.9 |
| 20260507120004 | 49 | 303 | 5.0 | 8.0 | 0.00 | 0.15 | 0.12 | 78 | 1007.8 |
| 20260507115506 | 49 | 319 | 1.0 | 7.0 | 0.00 | 0.15 | 0.12 | 79 | 1007.9 |
| 20260507115006 | 49 | 272 | 2.0 | 7.0 | 0.00 | 0.15 | 0.12 | 79 | 1007.9 |
| 20260507114006 | 49 | 321 | 2.0 | 8.0 | 0.00 | 0.15 | 0.12 | 79 | 1007.6 |
| 20260507113006 | 49 | 307 | 1.0 | 6.0 | 0.00 | 0.15 | 0.12 | 79 | 1007.7 |
| 20260507112504 | 49 | 287 | 2.0 | 6.0 | 0.00 | 0.15 | 0.12 | 79 | 1007.6 |
| 20260507112006 | 49 | 312 | 2.0 | 3.0 | 0.00 | 0.15 | 0.12 | 79 | 1007.7 |
| 20260507111504 | 49 | 314 | 1.0 | 3.0 | 0.00 | 0.15 | 0.12 | 79 | 1007.6 |
| 20260507111005 | 49 | 300 | 1.0 | 3.0 | 0.01 | 0.15 | 0.12 | 79 | 1007.6 |
| 20260507110504 | 49 | 286 | 1.0 | 5.0 | 0.01 | 0.15 | 0.12 | 79 | 1007.4 |
| 20260507110005 | 49 | 303 | 1.0 | 5.0 | 0.01 | 0.15 | 0.12 | 79 | 1007.6 |
| 20260507105006 | 49 | 281 | 2.0 | 3.0 | 0.02 | 0.15 | 0.12 | 79 | 1007.9 |
| 20260507104504 | 49 | 229 | 2.0 | 3.0 | 0.03 | 0.15 | 0.12 | 79 | 1007.9 |
| 20260507104005 | 49 | 214 | 3.0 | 5.0 | 0.04 | 0.15 | 0.12 | 79 | 1008.0 |
| 20260507103006 | 49 | 265 | 1.0 | 3.0 | 0.05 | 0.15 | 0.12 | 79 | 1007.4 |
| 20260507102504 | 49 | 239 | 2.0 | 3.0 | 0.05 | 0.15 | 0.12 | 79 | 1007.4 |
| 20260507102007 | 49 | 264 | 0.0 | 3.0 | 0.06 | 0.15 | 0.12 | 79 | 1007.5 |
| 20260507101504 | 49 | 268 | 2.0 | 3.0 | 0.07 | 0.15 | 0.12 | 79 | 1007.5 |
| 20260507101006 | 49 | 294 | 1.0 | 7.0 | 0.07 | 0.14 | 0.11 | 78 | 1007.4 |
| 20260507100504 | 49 | 274 | 3.0 | 8.0 | 0.08 | 0.14 | 0.11 | 78 | 1007.4 |
| 20260507100004 | 49 | 310 | 1.0 | 8.0 | 0.08 | 0.14 | 0.11 | 78 | 1007.1 |
| 20260507095504 | 49 | 285 | 3.0 | 9.0 | 0.07 | 0.13 | 0.10 | 78 | 1007.1 |
| 20260507095006 | 49 | 289 | 3.0 | 7.0 | 0.08 | 0.13 | 0.10 | 78 | 1007.2 |
| 20260507094006 | 50 | 313 | 5.0 | 12.0 | 0.06 | 0.11 | 0.08 | 78 | 1007.1 |
| 20260507093006 | 50 | 21 | 4.0 | 10.0 | 0.05 | 0.10 | 0.07 | 78 | 1006.9 |
| 20260507092504 | 51 | 288 | 3.0 | 12.0 | 0.05 | 0.10 | 0.07 | 78 | 1007.0 |
| 20260507092006 | 51 | 287 | 1.0 | 5.0 | 0.05 | 0.09 | 0.06 | 78 | 1007.0 |
| 20260507091516 | 51 | 271 | 3.0 | 9.0 | 0.04 | 0.08 | 0.05 | 78 | 1007.1 |
| 20260507091033 | 52 | 289 | 2.0 | 8.0 | 0.03 | 0.07 | 0.04 | 78 | 1007.1 |
| 20260507090504 | 52 | 274 | 0.0 | 3.0 | 0.02 | 0.06 | 0.03 | 78 | 1007.3 |
| 20260507090004 | 52 | 275 | 1.0 | 3.0 | 0.02 | 0.06 | 0.03 | 78 | 1007.2 |
| 20260507085504 | 52 | 291 | 0.0 | 6.0 | 0.02 | 0.06 | 0.03 | 78 | 1007.2 |
| 20260507085005 | 52 | 262 | 3.0 | 7.0 | 0.01 | 0.05 | 0.02 | 78 | 1007.3 |
| 20260507084504 | 52 | 286 | 3.0 | 7.0 | 0.02 | 0.05 | 0.02 | 77 | 1007.1 |
| 20260507083504 | 52 | 292 | 3.0 | 7.0 | 0.02 | 0.05 | 0.02 | 77 | 1006.9 |
| 20260507083006 | 53 | 289 | 1.0 | 3.0 | 0.02 | 0.05 | 0.02 | 76 | 1006.9 |
| 20260507082504 | 53 | 324 | 2.0 | 3.0 | 0.02 | 0.05 | 0.02 | 76 | 1006.8 |
| 20260507082006 | 53 | 291 | 1.0 | 6.0 | 0.01 | 0.04 | 0.01 | 76 | 1006.5 |
| 20260507081504 | 53 | 291 | 1.0 | 6.0 | 0.01 | 0.04 | 0.01 | 75 | 1006.8 |
| 20260507080004 | 53 | 329 | 4.0 | 9.0 | 0.01 | 0.04 | 0.01 | 73 | 1006.7 |
| 20260507075504 | 54 | 9 | 4.0 | 9.0 | 0.01 | 0.04 | 0.01 | 73 | 1006.6 |
| 20260507075006 | 54 | 267 | 3.0 | 12.0 | 0.01 | 0.04 | 0.01 | 72 | 1006.8 |
| 20260507074504 | 54 | 330 | 6.0 | 12.0 | 0.00 | 0.03 | 0.00 | 71 | 1006.8 |
| 20260507074006 | 54 | 279 | 7.0 | 12.0 | 0.00 | 0.03 | 0.00 | 70 | 1006.9 |
| 20260507073504 | 54 | 280 | 2.0 | 6.0 | 0.00 | 0.03 | 0.00 | 70 | 1006.6 |
| 20260507073006 | 54 | 296 | 3.0 | 6.0 | 0.00 | 0.03 | 0.00 | 70 | 1006.1 |
| 20260507072504 | 54 | 345 | 1.0 | 8.0 | 0.00 | 0.03 | 0.00 | 70 | 1006.1 |
| 20260507072006 | 54 | 340 | 3.0 | 8.0 | 0.00 | 0.03 | 0.00 | 70 | 1006.1 |
| 20260507071005 | 54 | 296 | 5.0 | 14.0 | 0.00 | 0.03 | 0.00 | 70 | 1006.3 |
| 20260507070504 | 54 | 260 | 3.0 | 13.0 | 0.00 | 0.03 | 0.00 | 70 | 1006.1 |
| 20260507070008 | 54 | 322 | 4.0 | 10.0 | 0.00 | 0.03 | 0.00 | 71 | 1006.0 |
| 20260507065504 | 55 | 280 | 3.0 | 10.0 | 0.00 | 0.03 | 0.00 | 72 | 1006.2 |
| 20260507065006 | 55 | 252 | 5.0 | 10.0 | 0.00 | 0.03 | 0.00 | 72 | 1006.2 |
| 20260507064504 | 55 | 310 | 4.0 | 15.0 | 0.00 | 0.03 | 0.00 | 73 | 1006.3 |
| 20260507064006 | 55 | 45 | 3.0 | 10.0 | 0.00 | 0.03 | 0.00 | 74 | 1006.2 |
| 20260507063504 | 55 | 289 | 5.0 | 10.0 | 0.00 | 0.03 | 0.00 | 75 | 1006.1 |
| 20260507062006 | 56 | 292 | 1.0 | 9.0 | 0.00 | 0.03 | 0.00 | 76 | 1005.7 |
| 20260507061504 | 56 | 289 | 5.0 | 13.0 | 0.00 | 0.03 | 0.00 | 76 | 1005.8 |
| 20260507061006 | 56 | 282 | 3.0 | 9.0 | 0.00 | 0.03 | 0.00 | 76 | 1006.0 |
| 20260507060504 | 56 | 271 | 6.0 | 12.0 | 0.00 | 0.03 | 0.00 | 76 | 1006.2 |
| 20260507060004 | 56 | 277 | 6.0 | 10.0 | 0.00 | 0.03 | 0.00 | 76 | 1006.1 |
| 20260507055504 | 57 | 339 | 3.0 | 9.0 | 0.00 | 0.03 | 0.00 | 77 | 1006.1 |
| 20260507055006 | 57 | 282 | 1.0 | 7.0 | 0.00 | 0.03 | 0.00 | 77 | 1006.3 |
| 20260507054504 | 57 | 284 | 5.0 | 10.0 | 0.00 | 0.03 | 0.00 | 77 | 1006.5 |
| 20260507054006 | 57 | 248 | 7.0 | 13.0 | 0.00 | 0.03 | 0.00 | 77 | 1006.4 |
| 20260507053504 | 57 | 287 | 2.0 | 10.0 | 0.00 | 0.03 | 0.00 | 77 | 1006.3 |
| 20260507053006 | 57 | 304 | 6.0 | 12.0 | 0.00 | 0.03 | 0.00 | 77 | 1006.3 |
| 20260507051504 | 57 | 298 | 5.0 | 10.0 | 0.00 | 0.03 | 0.00 | 79 | 1006.1 |
| 20260507051006 | 57 | 264 | 5.0 | 12.0 | 0.00 | 0.03 | 0.00 | 79 | 1006.1 |
| 20260507050504 | 58 | 304 | 8.0 | 16.0 | 0.00 | 0.03 | 0.00 | 80 | 1006.1 |
| 20260507050005 | 58 | 289 | 9.0 | 18.0 | 0.00 | 0.03 | 0.00 | 80 | 1006.2 |
| 20260507045504 | 59 | 306 | 5.0 | 13.0 | 0.00 | 0.03 | 0.00 | 81 | 1006.1 |
| 20260507045006 | 59 | 271 | 7.0 | 13.0 | 0.00 | 0.03 | 0.00 | 81 | 1006.1 |
| 20260507043504 | 59 | 277 | 7.0 | 12.0 | 0.00 | 0.03 | 0.00 | 81 | 1005.8 |
| 20260507042504 | 60 | 243 | 6.0 | 9.0 | 0.00 | 0.03 | 0.00 | 81 | 1005.9 |
| 20260507042007 | 60 | 226 | 5.0 | 10.0 | 0.00 | 0.03 | 0.00 | 81 | 1006.0 |
| 20260507041006 | 60 | 273 | 4.0 | 7.0 | 0.00 | 0.03 | 0.00 | 81 | 1006.2 |
| 20260507040504 | 60 | 271 | 2.0 | 7.0 | 0.00 | 0.03 | 0.00 | 81 | 1006.3 |
| 20260507035006 | 60 | 224 | 7.0 | 12.0 | 0.00 | 0.03 | 0.03 | 81 | 1006.1 |
| 20260507034005 | 60 | 229 | 7.0 | 16.0 | 0.00 | 0.03 | 0.03 | 80 | 1005.9 |
| 20260507033504 | 60 | 225 | 9.0 | 17.0 | 0.00 | 0.03 | 0.03 | 80 | 1006.0 |
| 20260507033006 | 60 | 222 | 12.0 | 15.0 | 0.00 | 0.03 | 0.03 | 80 | 1005.9 |
| 20260507032504 | 60 | 219 | 10.0 | 16.0 | 0.00 | 0.03 | 0.03 | 80 | 1005.8 |
| 20260507032006 | 60 | 213 | 12.0 | 16.0 | 0.00 | 0.03 | 0.03 | 80 | 1005.7 |
| 20260507031504 | 60 | 214 | 10.0 | 16.0 | 0.00 | 0.03 | 0.03 | 79 | 1005.7 |
| 20260507030504 | 60 | 213 | 7.0 | 12.0 | 0.00 | 0.03 | 0.03 | 80 | 1005.4 |
| 20260507024504 | 60 | 217 | 10.0 | 16.0 | 0.00 | 0.03 | 0.03 | 79 | 1005.7 |
| 20260507024005 | 60 | 209 | 9.0 | 15.0 | 0.00 | 0.03 | 0.03 | 79 | 1005.7 |
| 20260507023504 | 60 | 225 | 11.0 | 16.0 | 0.00 | 0.03 | 0.03 | 79 | 1005.7 |
| 20260507022504 | 60 | 211 | 10.0 | 16.0 | 0.00 | 0.03 | 0.03 | 80 | 1005.7 |
| 20260507022006 | 60 | 232 | 8.0 | 14.0 | 0.00 | 0.03 | 0.03 | 80 | 1005.7 |
| 20260507021504 | 60 | 216 | 10.0 | 15.0 | 0.00 | 0.03 | 0.03 | 80 | 1005.8 |
| 20260507021006 | 60 | 217 | 9.0 | 13.0 | 0.00 | 0.03 | 0.03 | 80 | 1005.6 |
| 20260507020504 | 60 | 213 | 6.0 | 12.0 | 0.00 | 0.03 | 0.03 | 80 | 1005.7 |
| 20260507020004 | 59 | 220 | 6.0 | 12.0 | 0.00 | 0.03 | 0.03 | 80 | 1005.6 |
| 20260507015006 | 59 | 234 | 6.0 | 17.0 | 0.00 | 0.03 | 0.03 | 80 | 1005.8 |
| 20260507013504 | 59 | 211 | 11.0 | 16.0 | 0.00 | 0.03 | 0.03 | 80 | 1005.9 |
| 20260507012504 | 59 | 194 | 8.0 | 13.0 | 0.00 | 0.03 | 0.03 | 80 | 1006.0 |
| 20260507012006 | 59 | 211 | 9.0 | 18.0 | 0.00 | 0.03 | 0.03 | 80 | 1006.0 |
| 20260507011504 | 59 | 210 | 11.0 | 17.0 | 0.00 | 0.03 | 0.03 | 80 | 1006.1 |
| 20260507011006 | 59 | 220 | 10.0 | 18.0 | 0.00 | 0.03 | 0.03 | 80 | 1006.2 |
| 20260507010004 | 58 | 217 | 9.0 | 14.0 | 0.00 | 0.03 | 0.03 | 80 | 1006.2 |
| 20260507005504 | 58 | 205 | 9.0 | 14.0 | 0.01 | 0.03 | 0.03 | 80 | 1006.2 |
| 20260507005006 | 58 | 199 | 9.0 | 14.0 | 0.01 | 0.03 | 0.03 | 80 | 1006.1 |
| 20260507004503 | 58 | 202 | 6.0 | 14.0 | 0.01 | 0.03 | 0.03 | 80 | 1006.2 |
| 20260507004006 | 58 | 202 | 6.0 | 14.0 | 0.01 | 0.03 | 0.03 | 80 | 1006.1 |
| 20260507003504 | 58 | 199 | 6.0 | 12.0 | 0.01 | 0.03 | 0.03 | 80 | 1006.2 |
| 20260507003006 | 58 | 208 | 10.0 | 14.0 | 0.01 | 0.03 | 0.03 | 80 | 1006.1 |
| 20260507002504 | 58 | 223 | 9.0 | 15.0 | 0.02 | 0.03 | 0.03 | 80 | 1006.1 |
| 20260507001007 | 58 | 209 | 9.0 | 15.0 | 0.02 | 0.03 | 0.03 | 80 | 1005.8 |
| 20260507000505 | 58 | 207 | 10.0 | 20.0 | 0.02 | 0.03 | 0.03 | 80 | 1005.8 |
| 20260507000005 | 58 | 207 | 9.0 | 17.0 | 0.02 | 0.03 | 0.03 | 80 | 1005.9 |
| 20260506235504 | 58 | 207 | 9.0 | 16.0 | 0.01 | 0.02 | 0.02 | 81 | 1006.0 |
| 20260506235006 | 58 | 191 | 7.0 | 17.0 | 0.01 | 0.02 | 0.02 | 80 | 1006.0 |
| 20260506234504 | 58 | 202 | 7.0 | 13.0 | 0.01 | 0.02 | 0.02 | 80 | 1006.0 |
| 20260506233505 | 58 | 202 | 7.0 | 13.0 | 0.01 | 0.02 | 0.02 | 80 | 1005.9 |
| 20260506232504 | 58 | 193 | 6.0 | 12.0 | 0.00 | 0.01 | 0.01 | 80 | 1005.9 |
| 20260506232006 | 58 | 178 | 6.0 | 10.0 | 0.00 | 0.01 | 0.01 | 80 | 1005.9 |
| 20260506231504 | 58 | 201 | 6.0 | 13.0 | 0.00 | 0.01 | 0.01 | 80 | 1006.0 |
| 20260506231006 | 58 | 204 | 6.0 | 15.0 | 0.00 | 0.01 | 0.01 | 80 | 1006.0 |
| 20260506230504 | 58 | 183 | 7.0 | 14.0 | 0.00 | 0.01 | 0.01 | 80 | 1006.0 |
| 20260506230004 | 59 | 198 | 5.0 | 10.0 | 0.00 | 0.01 | 0.01 | 80 | 1006.0 |
| 20260506225504 | 59 | 204 | 3.0 | 12.0 | 0.00 | 0.01 | 0.01 | 79 | 1005.9 |
| 20260506224505 | 59 | 193 | 6.0 | 15.0 | 0.01 | 0.01 | 0.01 | 79 | 1006.2 |
| 20260506224006 | 59 | 192 | 6.0 | 13.0 | 0.01 | 0.01 | 0.01 | 79 | 1006.2 |